YO8KGT-13 Weather Reports


time (UTC)temp
C
wind
direction
speed
KPH
gust
KPH
rain 1hr
cm
rain 24hr
cm
rain mn
cm
humidity
%
barometer
mb
20260901161236 21 338 0.0 0.0 0.00 0.00 0.00 71 948.0
20260901160736 21 338 0.0 0.0 0.00 0.00 0.00 71 948.0
20260901160251 21 338 0.0 0.0 0.00 0.00 0.00 71 948.0
20260901155736 21 338 0.0 0.0 0.00 0.00 0.00 71 948.0
20260901155248 21 338 0.0 0.0 0.00 0.00 0.00 71 948.0
20260901154736 21 338 0.0 0.0 0.00 0.00 0.00 71 948.0
20260901154235 21 338 0.0 0.0 0.00 0.00 0.00 71 948.0
20260901153735 21 338 0.0 0.0 0.00 0.00 0.00 71 948.0
20260901153236 21 338 0.0 0.0 0.00 0.00 0.00 71 948.0
20260901152736 22 338 0.0 0.0 0.00 0.00 0.00 71 948.0
20260901152235 21 338 0.0 0.0 0.00 0.00 0.00 71 948.0
20260901151750 22 338 0.0 0.0 0.00 0.00 0.00 70 948.0
20260901151235 22 338 0.0 0.0 0.00 0.00 0.00 70 948.0
20260901150747 22 338 0.0 0.0 0.00 0.00 0.00 70 948.0
20260901150236 22 338 0.0 0.0 0.00 24.97 0.00 70 948.0
20260901145737 22 338 0.0 0.0 0.00 0.00 0.00 70 948.0
20260901145235 22 338 0.0 0.0 0.00 0.00 0.00 70 948.0
20260901144736 22 338 0.0 0.0 0.00 0.00 0.00 70 948.0
20260901144302 22 338 0.0 0.0 0.00 0.00 0.00 69 948.0
20260901143736 22 338 0.0 0.0 0.00 0.00 0.00 70 948.0
20260901143249 22 338 0.0 0.0 0.00 0.00 0.00 70 948.0
20260901142736 23 338 0.0 0.0 0.00 0.00 0.00 70 948.0
20260901142236 23 338 0.0 0.0 0.00 0.00 0.00 70 948.0
20260901141735 22 315 0.0 0.0 0.00 0.00 0.00 71 948.0
20260901141235 22 292 0.0 0.0 0.00 0.00 0.00 71 948.0
20260901140737 22 292 0.0 0.0 0.00 0.00 0.00 71 948.0
20260901140235 22 292 0.0 0.0 0.00 0.00 0.00 71 948.0
20260901135754 22 292 0.0 0.0 0.00 0.00 0.00 71 948.0
20260901135236 22 292 0.0 0.0 0.00 0.00 0.00 71 948.0
20260901134751 22 292 0.0 0.0 0.00 0.00 0.00 71 948.0
20260901134235 22 0 0.0 0.0 0.00 0.00 0.00 71 948.0
20260901133736 22 338 0.0 0.0 0.00 0.00 0.00 71 948.0
20260901133235 22 338 0.0 0.0 0.00 0.00 0.00 71 948.0
20260901132735 22 338 0.0 0.0 0.00 0.00 0.00 71 948.0
20260901132235 22 338 0.0 0.0 0.00 0.00 0.00 71 948.0
20260901131736 22 338 0.0 0.0 0.00 0.00 0.00 71 948.0
20260901131254 21 338 0.0 0.0 0.00 0.00 0.00 72 948.0
20260901130735 21 338 0.0 0.0 0.00 0.00 0.00 72 948.0
20260901130250 21 338 0.0 0.0 0.00 0.00 0.00 72 948.0
20260901125736 21 338 0.0 0.0 0.00 0.00 0.00 71 948.0
20260901125237 21 338 0.0 0.0 0.00 0.00 0.00 71 948.0
20260901124736 21 338 0.0 0.0 0.00 0.00 0.00 71 948.0
20260901124237 21 338 0.0 0.0 0.00 0.00 0.00 71 948.0
20260901123736 21 338 0.0 0.0 0.00 0.00 0.00 71 948.0
20260901123236 21 338 0.0 0.0 0.00 0.00 0.00 71 948.0
20260901122754 21 338 0.0 0.0 0.00 0.00 0.00 71 948.0
20260901122236 21 338 0.0 0.0 0.00 0.00 0.00 71 948.0
20260901121740 21 338 0.0 0.0 0.00 0.00 0.00 71 948.0
20260901121235 21 338 0.0 0.0 0.00 0.00 0.00 71 948.0
20260901120736 21 338 0.0 0.0 0.00 0.00 0.00 71 948.0
20260901120236 21 338 0.0 0.0 0.00 0.00 0.00 71 948.0
20260901115735 21 315 0.0 0.0 0.00 0.00 0.00 71 948.0
20260901115256 21 0 0.0 0.0 0.00 0.00 0.00 71 948.0
20260901114735 21 0 0.0 0.0 0.00 0.00 0.00 71 948.0
20260901114253 21 0 0.0 3.2 0.00 0.00 0.00 71 948.0
20260901113736 21 0 0.0 3.2 0.00 0.00 0.00 71 948.0
20260901113239 21 0 3.2 6.4 0.00 0.00 0.00 71 948.0
20260901112737 20 338 3.2 6.4 0.00 0.00 0.00 71 948.0
20260901112235 20 338 0.0 6.4 0.00 0.00 0.00 71 948.0
20260901111736 20 0 0.0 0.0 0.00 0.00 0.00 71 948.0
20260901111236 20 0 0.0 0.0 0.00 0.00 0.00 70 948.0
20260901110758 20 0 0.0 0.0 0.00 0.00 0.00 70 948.0
20260901110258 21 0 0.0 0.0 0.00 0.00 0.00 70 948.0
20260901105757 21 0 0.0 0.0 0.00 0.00 0.00 70 948.0
20260901105236 21 338 0.0 0.0 0.00 0.00 0.00 69 948.0
20260901104742 21 338 0.0 0.0 0.00 0.00 0.00 69 948.0
20260901104235 21 338 0.0 1.6 0.00 0.00 0.00 68 948.0
20260901103820 21 338 0.0 1.6 0.00 0.00 0.00 68 948.0
20260901103235 22 338 1.6 3.2 0.00 0.00 0.00 68 947.0
20260901102736 22 338 0.0 3.2 0.00 0.00 0.00 68 947.0
20260901102300 22 0 0.0 3.2 0.00 0.00 0.00 68 947.0
20260901101735 22 0 0.0 4.8 0.00 0.00 0.00 67 947.0
20260901101338 22 0 0.0 4.8 0.00 0.00 0.00 67 947.0
20260901100736 22 0 0.0 4.8 0.00 0.00 0.00 67 947.0
20260901100244 22 338 4.8 4.8 0.00 0.00 0.00 67 947.0
20260901095735 22 338 0.0 3.2 0.00 0.00 0.00 68 947.0
20260901095235 22 338 0.0 3.2 0.00 0.00 0.00 68 947.0
20260901094735 22 0 1.6 4.8 0.00 0.00 0.00 67 947.0
20260901094236 22 0 0.0 4.8 0.00 0.00 0.00 67 947.0
20260901093801 22 0 3.2 4.8 0.00 0.00 0.00 67 947.0
20260901093235 22 22 0.0 3.2 0.00 0.00 0.00 68 947.0
20260901092747 22 338 0.0 1.6 0.00 0.00 0.00 68 947.0
20260901092236 22 338 0.0 3.2 0.00 0.00 0.00 68 947.0
20260901091743 22 338 0.0 3.2 0.00 0.00 0.00 67 947.0
20260901091234 22 338 0.0 3.2 0.00 0.00 0.00 67 947.0
20260901090735 23 338 0.0 3.2 0.00 0.00 0.00 67 947.0
20260901090236 23 338 0.0 3.2 0.00 0.00 0.00 67 947.0
20260901085736 23 0 0.0 3.2 0.00 0.00 0.00 68 947.0
20260901085305 23 270 0.0 0.0 0.00 0.00 0.00 68 946.0
20260901084736 23 292 0.0 1.6 0.00 0.00 0.00 68 946.0
20260901084248 23 292 0.0 1.6 0.00 0.00 0.00 69 946.0
20260901083735 23 292 1.6 4.8 0.00 0.00 0.00 69 946.0
20260901083242 23 225 0.0 4.8 0.00 0.00 0.00 70 946.0
20260901082734 23 270 4.8 4.8 0.00 0.00 0.00 70 946.0
20260901082235 23 0 0.0 3.2 0.00 0.00 0.00 71 946.0
20260901081804 23 248 3.2 3.2 0.00 0.00 0.00 71 946.0
20260901081236 23 292 0.0 3.2 0.00 0.00 0.00 72 946.0
20260901080801 22 270 0.0 3.2 0.00 0.00 0.00 73 946.0
20260901080236 22 292 0.0 0.0 0.00 0.00 0.00 74 946.0
20260901075748 22 270 0.0 4.8 0.00 0.00 0.00 74 946.0
20260901075234 21 270 0.0 4.8 0.00 0.00 0.00 75 946.0
20260901074736 21 248 0.0 4.8 0.00 0.00 0.00 76 946.0
20260901074235 20 270 0.0 4.8 0.00 0.00 0.00 76 946.0
20260901073736 20 270 0.0 0.0 0.00 0.00 0.00 76 946.0
20260901073235 20 270 0.0 0.0 0.00 0.00 0.00 77 946.0
20260901072735 20 270 0.0 0.0 0.00 0.00 0.00 76 946.0
20260901072252 19 270 0.0 0.0 0.00 0.00 0.00 76 946.0
20260901071734 20 270 0.0 0.0 0.00 0.00 0.00 76 946.0
20260901071244 19 270 0.0 0.0 0.00 0.00 0.00 76 946.0
20260901070735 20 270 0.0 0.0 0.00 0.00 0.00 77 946.0
20260901070257 19 248 0.0 0.0 0.00 0.00 0.00 77 946.0
20260901065735 19 248 0.0 3.2 0.00 0.00 0.00 77 946.0
20260901065252 19 248 0.0 6.4 0.00 0.00 0.00 77 946.0
20260901064736 19 248 0.0 6.4 0.00 0.00 0.00 77 945.0
20260901064236 19 248 0.0 6.4 0.00 0.00 0.00 77 946.0
20260901063734 19 248 0.0 3.2 0.00 0.00 0.00 77 945.0
20260901063234 19 248 3.2 3.2 0.00 0.00 0.00 77 945.0
20260901062735 19 248 0.0 0.0 0.00 0.00 0.00 77 945.0
20260901062234 19 248 0.0 0.0 0.00 0.00 0.00 77 945.0
20260901061753 19 248 0.0 0.0 0.00 0.00 0.00 77 945.0
20260901061235 19 248 0.0 3.2 0.00 0.00 0.00 78 945.0
20260901060740 19 248 0.0 3.2 0.00 0.00 0.00 78 945.0
20260901060235 19 248 0.0 6.4 0.00 0.00 0.00 78 945.0
20260901055734 19 248 3.2 6.4 0.00 0.00 0.00 78 945.0
20260901055236 18 248 0.0 6.4 0.00 0.00 0.00 78 945.0
20260901054734 18 248 0.0 3.2 0.00 0.00 0.00 78 945.0
20260901054256 18 248 0.0 0.0 0.00 0.00 0.00 78 944.0
20260901053736 18 248 0.0 0.0 0.00 0.00 0.00 78 944.0
20260901053248 18 248 0.0 0.0 0.00 0.00 0.00 78 944.0
20260901052735 18 248 0.0 0.0 0.00 0.00 0.00 77 944.0
20260901052236 18 248 0.0 0.0 0.00 0.00 0.00 77 944.0
20260901051736 18 248 0.0 0.0 0.00 0.00 0.00 77 944.0
20260901051235 18 248 0.0 0.0 0.00 0.00 0.00 77 944.0
20260901050736 18 248 0.0 0.0 0.00 0.00 0.00 77 944.0
20260901050236 18 248 0.0 0.0 0.00 0.00 0.00 78 945.0
20260901045751 18 248 0.0 0.0 0.00 0.00 0.00 78 945.0
20260901045235 18 248 0.0 0.0 0.00 0.00 0.00 78 945.0
20260901044749 18 248 0.0 0.0 0.00 0.00 0.00 79 945.0
20260901044235 18 248 0.0 0.0 0.00 0.00 0.00 79 945.0
20260901043736 18 248 0.0 0.0 0.00 0.00 0.00 79 945.0
20260901043235 18 248 0.0 3.2 0.00 0.00 0.00 79 945.0
20260901042735 18 248 0.0 3.2 0.00 0.00 0.00 80 945.0
20260901042235 17 248 0.0 3.2 0.00 0.00 0.00 80 945.0
20260901041735 17 248 0.0 0.0 0.00 0.00 0.00 80 945.0
20260901041254 17 248 0.0 0.0 0.00 0.00 0.00 80 945.0
20260901040735 17 248 0.0 0.0 0.00 0.00 0.00 80 945.0
20260901040239 17 248 0.0 0.0 0.00 0.00 0.00 80 945.0
20260901035735 17 248 0.0 3.2 0.00 0.00 0.00 80 945.0
20260901035235 17 248 0.0 3.2 0.00 0.00 0.00 80 945.0
20260901034735 17 248 3.2 3.2 0.00 0.00 0.00 80 945.0
20260901034235 17 248 0.0 0.0 0.00 0.00 0.00 80 944.0
20260901033758 17 248 0.0 0.0 0.00 0.00 0.00 80 945.0
20260901033234 17 225 0.0 0.0 0.00 0.00 0.00 80 945.0
20260901032754 17 225 0.0 0.0 0.00 0.00 0.00 80 945.0
20260901032234 17 225 0.0 6.4 0.00 0.00 0.00 80 945.0
20260901031739 17 225 0.0 6.4 0.00 0.00 0.00 80 944.0
20260901031238 17 270 0.0 0.0 0.00 0.00 0.00 79 945.0
20260901030735 17 315 0.0 0.0 0.00 0.00 0.00 79 945.0
20260901030235 16 315 0.0 0.0 0.00 0.00 0.00 79 944.0
20260901025736 16 315 0.0 0.0 0.00 0.00 0.00 79 944.0
20260901025258 16 315 0.0 0.0 0.00 0.00 0.00 79 944.0
20260901024757 16 315 0.0 0.0 0.00 0.00 0.00 79 944.0
20260901024255 16 315 0.0 0.0 0.00 0.00 0.00 79 944.0
20260901023734 16 315 0.0 0.0 0.00 0.00 0.00 78 944.0
20260901023242 16 315 0.0 0.0 0.00 0.00 0.00 78 944.0
20260901022735 16 315 0.0 0.0 0.00 0.00 0.00 78 944.0
20260901022318 16 315 0.0 0.0 0.00 0.00 0.00 78 944.0
20260901021734 16 315 0.0 0.0 0.00 0.00 0.00 77 944.0
20260901021234 16 315 0.0 0.0 0.00 0.00 0.00 77 944.0
20260901020759 17 315 0.0 0.0 0.00 0.00 0.00 77 944.0
20260901020235 17 315 0.0 0.0 0.00 0.00 0.00 77 944.0
20260901015835 17 315 0.0 0.0 0.00 0.00 0.00 77 944.0
20260901015235 17 315 0.0 0.0 0.00 0.00 0.00 77 944.0
20260901014744 17 315 0.0 0.0 0.00 0.00 0.00 76 944.0
20260901014234 17 315 0.0 0.0 0.00 0.00 0.00 76 944.0
20260901013735 17 315 0.0 0.0 0.00 0.00 0.00 76 944.0
20260901013234 17 315 0.0 0.0 0.00 0.00 0.00 76 944.0
20260901012735 17 315 0.0 0.0 0.00 0.00 0.00 76 944.0
20260901012301 17 315 0.0 0.0 0.00 0.00 0.00 76 944.0
20260901011735 17 315 0.0 0.0 0.00 0.00 0.00 76 944.0
20260901011248 17 315 0.0 0.0 0.00 0.00 0.00 76 944.0
20260901010735 17 315 0.0 0.0 0.00 0.00 0.00 76 944.0
20260901010244 17 315 0.0 0.0 0.00 0.00 0.00 76 945.0
20260901005735 17 315 0.0 0.0 0.00 0.00 0.00 76 945.0
20260901005234 17 315 0.0 0.0 0.00 0.00 0.00 76 945.0
20260901004735 17 315 0.0 0.0 0.00 0.00 0.00 76 944.0
20260901004235 17 315 0.0 0.0 0.00 0.00 0.00 75 945.0
20260901003800 17 315 0.0 0.0 0.00 0.00 0.00 75 945.0
20260901003235 17 315 0.0 0.0 0.00 0.00 0.00 75 945.0
20260901002745 17 315 0.0 0.0 0.00 0.00 0.00 75 945.0
20260901002234 17 315 0.0 0.0 0.00 0.00 0.00 74 945.0
20260901001742 18 315 0.0 0.0 0.00 0.00 0.00 74 945.0
20260901001235 18 315 0.0 0.0 0.00 0.00 0.00 74 945.0
20260901000735 18 315 0.0 0.0 0.00 0.00 0.00 74 945.0
20260901000235 18 315 0.0 0.0 0.00 0.00 0.00 74 945.0
20260831235735 18 315 0.0 0.0 0.00 0.00 0.00 74 945.0
20260831235301 18 315 0.0 0.0 0.00 0.00 0.00 73 945.0
20260831234735 18 315 0.0 0.0 0.00 0.00 0.00 73 945.0
20260831234248 18 315 0.0 0.0 0.00 0.00 0.00 73 945.0
20260831233735 18 315 0.0 0.0 0.00 0.00 0.00 73 945.0
20260831233235 18 315 0.0 0.0 0.00 0.00 0.00 73 945.0
20260831232734 18 315 0.0 0.0 0.00 0.00 0.00 73 945.0
20260831232234 18 315 0.0 0.0 0.00 0.00 0.00 73 945.0
20260831231734 18 315 0.0 0.0 0.00 0.00 0.00 72 945.0
20260831231234 18 315 0.0 0.0 0.00 0.00 0.00 72 945.0
20260831230752 18 315 0.0 0.0 0.00 0.00 0.00 72 945.0
20260831230234 18 315 0.0 0.0 0.00 0.00 0.00 71 945.0
20260831225748 18 315 0.0 0.0 0.00 0.00 0.00 71 945.0
20260831225234 18 315 0.0 0.0 0.00 0.00 0.00 71 945.0
20260831224734 18 315 0.0 0.0 0.00 0.00 0.00 71 945.0
20260831224235 18 315 0.0 0.0 0.00 0.00 0.00 70 946.0
20260831223734 19 315 0.0 0.0 0.00 0.00 0.00 70 946.0
20260831223234 19 315 0.0 0.0 0.00 0.00 0.00 70 946.0
20260831222735 19 315 0.0 0.0 0.00 0.00 0.00 69 945.0
20260831222253 19 315 0.0 0.0 0.00 0.00 0.00 69 945.0
20260831221735 20 315 0.0 0.0 0.00 0.00 0.00 69 945.0
20260831221251 20 315 0.0 1.6 0.00 0.00 0.00 69 945.0
20260831220734 20 315 0.0 3.2 0.00 0.00 0.00 69 945.0
20260831220236 20 315 0.0 3.2 0.00 0.00 0.00 69 945.0
20260831215734 20 315 3.2 3.2 0.00 0.00 0.00 68 945.0
20260831215234 20 315 0.0 0.0 0.00 0.00 0.00 68 945.0
20260831214735 20 315 0.0 0.0 0.00 0.00 0.00 67 946.0
20260831214234 20 315 0.0 0.0 0.00 0.00 0.00 67 946.0
20260831213754 20 315 0.0 0.0 0.00 0.00 0.00 66 946.0
20260831213234 20 315 0.0 0.0 0.00 0.00 0.00 66 946.0
20260831212739 20 315 0.0 0.0 0.00 0.00 0.00 65 946.0
20260831212234 21 315 0.0 0.0 0.00 0.00 0.00 65 945.0
20260831211736 21 315 0.0 0.0 0.00 0.00 0.00 65 945.0
20260831211235 21 315 0.0 0.0 0.00 0.00 0.00 65 946.0
20260831210735 21 315 0.0 0.0 0.00 0.00 0.00 65 946.0
20260831210258 21 315 0.0 0.0 0.00 0.00 0.00 64 946.0
20260831205733 21 315 0.0 0.0 0.00 0.00 0.00 64 945.0
20260831205254 21 315 0.0 0.0 0.00 0.00 0.00 64 945.0
20260831204735 21 315 0.0 0.0 0.00 0.00 0.00 63 945.0
20260831204239 21 315 0.0 0.0 0.00 0.00 0.00 63 946.0
20260831203737 21 315 0.0 0.0 0.00 0.00 0.00 63 945.0
20260831203235 21 315 0.0 0.0 0.00 0.00 0.00 63 945.0
20260831202735 21 315 0.0 0.0 0.00 0.00 0.00 62 945.0
20260831202235 21 315 0.0 0.0 0.00 0.00 0.00 62 945.0
20260831201755 21 315 0.0 0.0 0.00 0.00 0.00 62 945.0
20260831201255 21 315 0.0 0.0 0.00 0.00 0.00 62 945.0
20260831200754 21 315 0.0 0.0 0.00 0.00 0.00 62 945.0
20260831200234 21 315 0.0 0.0 0.00 0.00 0.00 61 945.0
20260831195737 21 315 0.0 0.0 0.00 0.00 0.00 61 945.0
20260831195235 22 315 0.0 0.0 0.00 0.00 0.00 61 945.0
20260831194811 22 315 0.0 0.0 0.00 0.00 0.00 61 945.0
20260831194235 22 315 0.0 0.0 0.00 0.00 0.00 61 945.0
20260831193735 22 315 0.0 0.0 0.00 0.00 0.00 61 945.0
20260831193255 22 315 0.0 0.0 0.00 0.00 0.00 61 945.0
20260831192734 22 315 0.0 0.0 0.00 0.00 0.00 61 945.0
20260831192331 22 315 0.0 0.0 0.00 0.00 0.00 61 945.0
20260831191735 22 315 0.0 0.0 0.00 0.00 0.00 61 945.0
20260831191236 22 315 0.0 0.0 0.00 0.00 0.00 60 945.0
20260831190735 22 315 0.0 0.0 0.00 0.00 0.00 60 945.0
20260831190233 23 315 0.0 0.0 0.00 0.00 0.00 60 945.0
20260831185733 23 315 0.0 0.0 0.00 0.00 0.00 60 945.0
20260831185235 23 315 0.0 0.0 0.00 0.00 0.00 60 945.0
20260831184755 23 315 0.0 0.0 0.00 0.00 0.00 59 945.0
20260831184233 23 315 0.0 0.0 0.00 0.00 0.00 59 945.0
20260831183741 23 315 0.0 0.0 0.00 0.00 0.00 59 945.0
20260831183233 23 315 0.0 1.6 0.00 0.00 0.00 59 945.0
20260831182737 23 315 0.0 1.6 0.00 0.00 0.00 59 945.0
20260831182234 23 315 0.0 1.6 0.00 0.00 0.00 59 945.0
20260831181733 23 22 0.0 0.0 0.00 0.00 0.00 59 945.0
20260831181259 23 22 0.0 0.0 0.00 0.00 0.00 59 945.0
20260831180735 23 22 0.0 0.0 0.00 0.00 0.00 59 945.0
20260831180257 23 22 0.0 0.0 0.00 0.00 0.00 58 945.0
20260831175734 23 22 0.0 0.0 0.00 0.00 0.00 58 945.0
20260831175241 23 22 0.0 0.0 0.00 0.00 0.00 58 945.0
20260831174735 23 22 0.0 0.0 0.00 0.00 0.00 57 945.0
20260831174237 23 22 0.0 0.0 0.00 0.00 0.00 57 945.0
20260831173734 24 22 0.0 0.0 0.00 0.00 0.00 57 945.0
20260831173233 24 22 0.0 0.0 0.00 0.00 0.00 57 945.0
20260831172800 24 22 0.0 0.0 0.00 0.00 0.00 57 945.0
20260831172234 24 22 0.0 0.0 0.00 0.00 0.00 56 945.0
20260831171757 25 22 0.0 0.0 0.00 0.00 0.00 56 945.0
20260831171233 25 22 0.0 0.0 0.00 0.00 0.00 56 945.0
20260831170744 25 22 0.0 0.0 0.00 0.00 0.00 55 945.0
20260831170233 25 22 0.0 0.0 0.00 0.00 0.00 55 945.0
20260831165734 25 22 0.0 0.0 0.00 0.00 0.00 55 945.0
20260831165233 25 22 0.0 0.0 0.00 0.00 0.00 55 945.0
20260831164735 25 22 0.0 0.0 0.00 0.00 0.00 55 945.0
20260831164259 25 22 0.0 0.0 0.00 0.00 0.00 55 945.0
20260831163734 25 22 0.0 0.0 0.00 0.00 0.00 55 945.0
20260831163245 25 22 0.0 0.0 0.00 0.00 0.00 55 945.0
20260831162733 26 22 0.0 0.0 0.00 0.00 0.00 55 945.0
20260831162240 26 22 0.0 0.0 0.00 0.00 0.00 54 945.0
20260831161734 26 22 0.0 0.0 0.00 0.00 0.00 54 945.0